Location: Azat
(46.0765°N, 1.7600°E)
Time: 10:29:40
(UTC+00:00)

STARLINK-1227 - Pass Details

Date: 09 April 2020
Orbit: 377 x 382 km, 53.0° (Epoch: 04 June)

Event Time Altitude Azimuth Distance (km) Brightness Sun altitude
Rises 19:52:35 0° 301° (WNW) 2,205 8.7 -13.8°
Reaches altitude 10° 19:54:37 10° 302° (WNW) 1,353 7.1 -14.1°
Maximum altitude 19:57:39 86° 29° (NNE) 368 2.7 -14.6°
Enters shadow 19:58:40 38° 118° (ESE) 575 3.2 -14.8°
